Hourly Data Report for September 01, 2017

All times are specified in Local Standard Time (LST). Add 1 hour to adjust for Daylight Saving Time where and when it is observed.

CLYDE RIVER A
NUNAVUT

70°29'09.000" N
68°31'01.000" W
26.50 m
2400804
71090
YCY

Download Data

Hourly Data (September 2017)
Hourly Data Report for September 1, 2017
Temp Definition
°C
Dew Point Temp Definition
°C
Rel Hum Definition
%
Wind Dir Definition
10's deg

Wind Spd Definition
km/h
Visibility Definition
km
Stn Press Definition
kPa
Hmdx Definition


Wind Chill Definition


Weather Definition


TIME
00:00 Legend Double Dagger 3.8 -0.8 72 24 8 16.1 99.27     LegendNANA
01:00 Legend Double Dagger 3.4 -0.3 77 28 9 16.1 99.29     LegendNANA
02:00 Legend Double Dagger 4.7 -0.3 70   0 16.1 99.28     LegendNANA
03:00 Legend Double Dagger 4.0 -0.1 75 32 5 16.1 99.30     LegendNANA
04:00 Legend Double Dagger 3.3 0.3 80 28 8 16.1 99.32     LegendNANA
05:00 Legend Double Dagger 2.6 0.5 86 2 4 16.1 99.32     LegendNANA
06:00 Legend Double Dagger 3.3 1.0 85 25 5 16.1 99.35     LegendNANA
07:00 Legend Double Dagger 3.8 1.4 84   0 16.1 99.36     LegendNANA
08:00 Legend Double Dagger 3.9 1.7 86 23 11 16.1 99.38     Rain
09:00 Legend Double Dagger 3.2 1.7 90 17 5 16.1 99.40     Rain
10:00 Legend Double Dagger 3.4 1.5 87 6 5 16.1 99.40     Rain
11:00 Legend Double Dagger 3.6 1.9 89 7 9 16.1 99.39     LegendNANA
12:00 Legend Double Dagger 3.4 1.8 89 9 9 16.1 99.41     Rain
13:00 Legend Double Dagger 3.3 1.6 88 10 9 16.1 99.43     Rain
14:00 Legend Double Dagger 3.4 1.9 90 7 9 16.1 99.46     LegendNANA
15:00 Legend Double Dagger 2.8 1.8 93 9 8 16.1 99.51     Rain
16:00 Legend Double Dagger 2.8 2.1 95 35 13 4.0 99.59     Rain,Fog
17:00 Legend Double Dagger 2.8 2.2 96 35 9 8.1 99.62     Rain,Fog
18:00 Legend Double Dagger 3.1 2.1 93 34 17 16.1 99.66     Rain
19:00 Legend Double Dagger 3.0 2.0 93 33 21 16.1 99.71     LegendNANA
20:00 Legend Double Dagger 2.7 1.8 94 33 22 14.5 99.78     LegendNANA
21:00 Legend Double Dagger 2.6 1.9 95 33 22 8.1 99.83     Rain,Fog
22:00 Legend Double Dagger 2.6 1.9 95 33 17 16.1 99.86     LegendNANA
23:00 Legend Double Dagger 2.8 2.1 95 30 17 16.1 99.89     LegendNANA

Notes on Data Quality.

Legend

  • E = Estimated
  • M = Missing
  • NA = Not Available
  • ‡ = Partner data that is not subject to review by the National Climate Archives
Date modified: